Flag for U.S.A. Weather past 2 weeks in Charlottesville, Virginia, U.S.A.

Now
63 °F

Sunny.


Feels Like: 63 °F
Forecast: 40 / 64 °F
Wind: No wind

Location: Charlottesville-Albemarle Airport

Current Time: Apr 1, 2015 at 6:44:59 PM

Latest Report: Apr 1, 2015 at 5:53 PM


Visibility: 10 mi

Pressure: 30.11 "Hg

Humidity: 20%

Dew point: 21 °F

Location of CharlottesvilleLocation

Historic Weather in Charlottesville — Graph

°F

Charlottesville temperature yesterday

Maximum temperature yesterday: 71 °F (at 2:53 PM)
Minimum temperature yesterday: 45 °F (at 4:53 AM)
Average temperature yesterday: 58 °F

Past Weeks' High & Low Weather Summary

 TemperatureHumidityPressure
High75 °F (Mar 26, 3:53 PM)97% (Mar 20, 9:00 AM)30.40 "Hg (Mar 20, 9:00 AM)
Low25 °F (Mar 29, 5:53 AM)10% (Mar 18, 4:53 PM)29.54 "Hg (Mar 31, 4:53 PM)
Average46 °F50%30.06 "Hg
* Reported Mar 17 4:53 PM — Apr 1 4:53 PM, Charlottesville, Weather by CustomWeather, © 2015

Note: Actual official high and low records may vary slightly from our data, if they occured in-between our weather recording intervals... More about our weather records

Advertising

Charlottesville weather history for previous 24 hours

 ConditionsComfort  
Time TempWeatherWind HumidityBarometerVisibility
4:53 PM
Wed, Apr 1
63 °FSunny.9 mph21%30.10 "Hg10 mi
3:53 PM62 °FSunny.7 mph22%30.11 "Hg10 mi
2:53 PM61 °FSunny.9 mph23%30.11 "Hg10 mi
1:53 PM58 °FSunny.8 mph24%30.12 "Hg10 mi
12:53 PM56 °FSunny.12 mph22%30.13 "Hg10 mi
11:53 AM54 °FSunny.6 mph23%30.14 "Hg10 mi
10:53 AM51 °FSunny.7 mph36%30.14 "Hg10 mi
9:53 AM46 °FSunny.3 mph50%30.13 "Hg10 mi
8:53 AM43 °FSunny.6 mph58%30.11 "Hg10 mi
7:53 AM39 °FClear.No wind67%30.09 "Hg10 mi
6:53 AM37 °FClear.5 mph73%30.05 "Hg10 mi
5:53 AM37 °FClear.6 mph76%30.00 "Hg10 mi
4:53 AM41 °FClear.10 mph67%29.98 "Hg10 mi
3:53 AM43 °FClear.7 mph65%29.94 "Hg10 mi
2:53 AM48 °FClear.10 mph48%29.92 "Hg10 mi
1:53 AM51 °FClear.9 mph46%29.89 "Hg10 mi
12:53 AM53 °FClear.6 mph48%29.86 "Hg10 mi
11:53 PM
Tue, Mar 31
55 °FClear.13 mph47%29.83 "Hg10 mi
10:53 PM56 °FClear.7 mph49%29.79 "Hg10 mi
9:53 PM59 °FClear.12 mph42%29.76 "Hg10 mi
8:53 PM66 °FClear.15 mph24%29.70 "Hg10 mi
7:53 PM63 °FSunny.5 mph38%29.66 "Hg10 mi
6:53 PM67 °FLight rain. More clouds than sun.17 mph32%29.62 "Hg10 mi
Weather by CustomWeather, © 2015

See weather overviewHow to use our weather pages